This demonstration page uses our WeatherBlox Daily Observations layout. Learn more.

Left ArrowRight Arrow

39.92423, -83.80882

Hourly Observations for January 15, 2020

Temp ( °F °C ) Dew Point ( °F °C ) Humidity (%) Winds ( mph kmh ) Pressure ( in mb ) Visibility ( mi km ) Precip ( " mm )
12:09 am 00:09 Partly Cloudy with Mist and Fog 36 2 36 2 100 100 WSW 5 7 30.25 1024 4 6.43736 0 0
12:56 am 00:56 Clear with Mist and Fog 34 1.1 34 1.1 100 100 Calm 30.23 1024 2.5 4.02335 0 0
1:08 am 01:08 Clear with Mist and Fog 34 1 34 1 100 100 Calm 30.25 1024 1.25 2.011675 0 0
1:14 am 01:14 Clear with Mist and Fog 34 1 34 1 100 100 Calm 30.25 1024 0.75 1.207005 0 0
1:22 am 01:22 Clear with Fog 34 1 34 1 100 100 Calm 30.24 1024 0.25 0.402335 0 0
1:36 am 01:36 Mostly Cloudy with Fog 32 0 32 0 100 100 Calm 30.24 1024 0.25 0.402335 0 0
1:41 am 01:41 Clear with Fog 32 0 32 0 100 100 SSE 3 6 30.24 1024 0.5 0.80467 0 0
1:45 am 01:45 Mostly Cloudy with Fog 32 0 32 0 100 100 SE 3 6 30.24 1024 0.25 0.402335 0 0
1:56 am 01:56 Mostly Cloudy with Fog 32 0 32 0 100 100 Calm 30.22 1023 0.25 0.402335 0 0
2:23 am 02:23 Cloudy with Freezing Fog 27 -3 27 -3 100 100 E 5 7 30.26 1025 0.25 0.402335 0 0
2:56 am 02:56 Cloudy with Freezing Fog 29 -1.7 29 -1.7 100 100 E 3 6 30.23 1024 N/A 0 0
3:56 am 03:56 Cloudy with Freezing Fog 28 -2.2 28 -2.2 100 100 ESE 3 6 30.21 1023 0.25 0.402335 0 0
4:56 am 04:56 Cloudy with Freezing Fog 29 -1.7 29 -1.7 100 100 E 3 6 30.19 1023 0.25 0.402335 0 0
5:56 am 05:56 Cloudy with Freezing Fog 27 -2.8 27 -2.8 100 100 ESE 5 7 30.2 1023 0.25 0.402335 0 0
6:23 am 06:23 Cloudy with Freezing Fog 27 -3 27 -3 100 100 E 6 9 30.24 1024 0.5 0.80467 0 0
6:48 am 06:48 Cloudy with Mist and Fog 27 -3 27 -3 100 100 E 8 13 30.23 1024 1 1.60934 0 0
6:53 am 06:53 Cloudy with Mist and Fog 27 -3 27 -3 100 100 E 7 11 30.23 1024 2 3.21868 0 0
6:56 am 06:56 Cloudy with Mist and Fog 27 -2.8 27 -2.8 100 100 ENE 7 11 30.2 1023 3 4.82802 0 0
7:10 am 07:10 Cloudy with Mist and Fog 27 -3 27 -3 100 100 ENE 8 13 30.23 1024 1.75 2.816345 0 0
7:14 am 07:14 Cloudy with Mist and Fog 27 -3 27 -3 100 100 E 8 13 30.23 1024 0.75 1.207005 0 0
7:24 am 07:24 Cloudy with Freezing Fog 27 -3 27 -3 100 100 E 9 15 30.22 1023 0.5 0.80467 0 0
7:41 am 07:41 Cloudy with Mist and Fog 28 -2 28 -2 100 100 E 8 13 30.2 1023 0.75 1.207005 0 0
7:56 am 07:56 Cloudy with Freezing Fog 28 -2.2 28 -2.2 100 100 E 9 15 30.18 1022 0.5 0.80467 0 0
8:16 am 08:16 Cloudy with Mist and Fog 28 -2 28 -2 100 100 SE 10 17 30.2 1023 1 1.60934 0 0
8:26 am 08:26 Cloudy with Freezing Fog 28 -2 28 -2 100 100 SE 10 17 30.2 1023 0.5 0.80467 0 0
8:37 am 08:37 Cloudy with Freezing Fog 30 -1 30 -1 100 100 SE 12 19 30.2 1023 0.25 0.402335 0 0
8:56 am 08:56 Cloudy with Freezing Fog 31 -0.6 31 -0.6 100 100 ESE 13 20 30.16 1022 N/A 0 0
9:27 am 09:27 Cloudy with Light Freezing Rain 32 0 32 0 100 100 ESE 13 20 30.17 1022 N/A 0.001 0.001
9:43 am 09:43 Cloudy with Light Wintry Mix 32 0 32 0 100 100 ESE 10 17 30.18 1022 0.25 0.402335 0.001 0.001
9:56 am 09:56 Cloudy with Light Rain 33 0.6 33 0.6 100 100 ESE 9 15 30.16 1021 0.25 0.402335 0.001 0.001
10:56 am 10:56 Cloudy with Fog 36 2.2 36 2.2 100 100 SE 9 15 30.13 1020 0.25 0.402335 0.03 0.762
11:56 am 11:56 Cloudy with Fog 39 3.9 39 3.9 100 100 SE 9 15 30.09 1019 0.25 0.402335 0 0
12:31 pm 12:31 Cloudy with Fog 41 5 41 5 100 100 SE 8 13 30.07 1018 0.5 0.80467 0.34 8.636
12:46 pm 12:46 Cloudy with Mist and Fog 43 6 43 6 100 100 SE 7 11 30.07 1018 0.75 1.207005 0.34 8.636
12:56 pm 12:56 Cloudy with Mist and Fog 42 5.6 42 5.6 100 100 SE 7 11 30.06 1018 0.75 1.207005 0.34 8.636
1:03 pm 13:03 Cloudy with Mist and Fog 43 6 43 6 100 100 SE 8 13 30.05 1018 1 1.60934 0 0
1:22 pm 13:22 Cloudy with Mist and Fog 45 7 45 7 100 100 ESE 7 11 30.03 1017 0.75 1.207005 0 0
1:56 pm 13:56 Cloudy with Mist and Fog 45 7.2 45 7.2 100 100 ESE 7 11 30.01 1016 1 1.60934 0 0
2:14 pm 14:14 Cloudy with Mist and Fog 45 7 45 7 100 100 ESE 7 11 30 1016 1.5 2.41401 0 0
2:41 pm 14:41 Cloudy with Mist and Fog 46 8 46 8 100 100 SE 7 11 29.99 1016 1 1.60934 0 0
2:56 pm 14:56 Cloudy with Light Rain 46 7.8 46 7.8 100 100 SSE 9 15 29.99 1016 0.75 1.207005 0.001 0.001
3:56 pm 15:56 Cloudy with Mist and Fog 48 8.9 48 8.9 100 100 S 3 6 30 1016 0.75 1.207005 0.001 0.001
4:49 pm 16:49 Cloudy with Light Rain 52 11 52 11 100 100 SW 8 13 29.98 1015 0.5 0.80467 0.001 0.001
4:56 pm 16:56 Cloudy with Light Rain 51 10.6 51 10.6 100 100 SW 9 15 29.99 1016 0.5 0.80467 0.001 0.001
5:02 pm 17:02 Cloudy with Light Rain 52 11 52 11 100 100 SW 12 19 29.97 1015 1 1.60934 0.001 0.001
5:06 pm 17:06 Cloudy with Light Rain 52 11 52 11 100 100 SW 14 22 29.97 1015 2 3.21868 0.001 0.001
5:14 pm 17:14 Cloudy with Mist and Fog 52 11 52 11 100 100 WSW 16 26 29.97 1015 4 6.43736 0.001 0.001
5:30 pm 17:30 Cloudy with Mist and Fog 52 11 52 11 100 100 WSW 14 22 29.98 1015 2 3.21868 0.001 0.001
5:46 pm 17:46 Cloudy 52 11 52 11 100 100 WSW 20 31 29.99 1015 8 12.87472 0.001 0.001
5:56 pm 17:56 Cloudy 51 10.6 51 10.6 100 100 W 17 28 30.01 1016 10 16.0934 0.001 0.001
6:38 pm 18:38 Cloudy 52 11 52 11 100 100 W 17 28 30 1016 10 16.0934 0 0
6:56 pm 18:56 Cloudy 50 10 50 10 100 100 W 24 39 30.03 1017 10 16.0934 0 0
7:08 pm 19:08 Cloudy 50 10 50 10 100 100 W 25 41 30.01 1016 10 16.0934 0 0
7:41 pm 19:41 Partly Cloudy 48 9 48 9 100 100 W 17 28 30.05 1017 10 16.0934 0 0
7:56 pm 19:56 Mostly Clear 47 8.3 47 8.3 100 100 W 18 30 30.06 1018 10 16.0934 0 0
8:22 pm 20:22 Mostly Cloudy 46 8 46 8 100 100 W 14 22 30.06 1018 10 16.0934 0 0
8:56 pm 20:56 Cloudy 47 8.3 45 7.2 93 93 W 14 22 30.07 1018 10 16.0934 0 0
9:56 pm 21:56 Cloudy 46 7.8 44 6.7 93 93 W 13 20 30.09 1019 10 16.0934 0 0
10:31 pm 22:31 Cloudy 45 7 43 6 93 93 WNW 21 33 30.12 1020 10 16.0934 0 0
10:56 pm 22:56 Cloudy 45 7.2 42 5.6 90 90 WNW 12 19 30.14 1021 10 16.0934 0 0
11:56 pm 23:56 Cloudy 42 5.6 40 4.4 92 92 WNW 16 26 30.16 1022 10 16.0934 0 0

Powered by AerisWeather